Location: Boiro
(42.6475°N, 8.8834°W)
Time: 20:12:23
(UTC+02:00)

Iridium 71 - Pass Details

Date: 04 July 2022
Orbit: 760 x 760 km, 86.4° (Epoch: 13 August)

Event Time Altitude Azimuth Distance (km) Brightness Sun altitude
Rises 06:14:47 0° 17° (NNE) 3,231 9.8 -7.9°
Reaches altitude 10° 06:18:37 10° 46° (NE) 2,299 9.8 -7.4°
Maximum altitude 06:20:48 13° 71° (ENE) 2,117 9.1 -7.1°
Drops below altitude 10° 06:22:59 10° 97° (E) 2,292 8.7 -6.8°
Sets 06:26:46 0° 126° (SE) 3,211 8.9 -6.2°
